Tracking 30107 objects as of 18-Jan-2025
HD Live streaming from Space Station
objects crossing your sky now

ONEWEB-0027

Track ONEWEB-0027 now!
10-day predictions
ONEWEB-0027 is classified as:


NORAD ID: 45432
Int'l Code: 2020-020J
Perigee: 1,199.3 km
Apogee: 1,202.4 km
Inclination: 87.9 °
Period: 109.3 minutes
Semi major axis: 7571 km
RCS: Unknown
Launch date: March 21, 2020
Source: United Kingdom (UK)
Launch site: TYURATAM MISSILE AND SPACE COMPLEX (TTMTR)
Your satellite tracking list
Your tracking list is empty




NASA's NSSDC Master Catalog

Two Line Element Set (TLE):
1 45432U 20020J   25017.77605021  .00000050  00000-0  95795-4 0  9999
2 45432  87.9093 108.5369 0002090 101.0397 259.0970 13.17646574238481
Source of the keplerian elements: AFSPC